Regional Weather Roundup
Issued by NWS

Home | Current Version | Previous Version | Text Only | Print | Product List | Glossary On
Versions: 1 2 3 4 5 6 7 8 9 10 11 12 13 14 15 16 17 18 19 20 21 22 23 24 25 26 27 28 29 30 31 32 33 34 35 36 37 38 39 40 41 42 43 44 45 46 47 48 49 50
000
ASUS44 KLIX 312112
RWRLA
LOUISIANA WEATHER ROUNDUP
NATIONAL WEATHER SERVICE NEW ORLEANS LA
400 PM CDT FRI JUL 31 2015

NOTE: "FAIR" INDICATES FEW OR NO CLOUDS BELOW 12,000 FEET WITH NO
      SIGNIFICANT WEATHER AND/OR OBSTRUCTIONS TO VISIBILITY.
      SKY/WX - SKY CONDITION AND SIGNIFICANT WEATHER.
      TMP - AIR TEMPERATURE.    DP   - DEWPOINT TEMPERATURE.
      RH  - RELATIVE HUMIDITY.  PRES - PRESSURE.
      HX  - HEAT INDEX.         WCI  - WIND CHILL INDEX.

*  THESE STATIONS ARE NOT NWS OR FAA STATIONS AND ARE NOT UNDER
   NWS QUALITY CONTROL.

LAZ040-048-061>063-065-066-069-312200-
SOUTHEAST LOUISIANA

CITY           SKY/WX    TMP DP  RH WIND       PRES   REMARKS
N.O. AUDUBON     N/A     96  77  55 MISG        N/A  HX 111
N.O. INTL ARPT MOSUNNY   93  72  50 N13       29.90F HX 101
N.O. LAKEFRONT SUNNY     93  74  53 NW13      29.90F HX 103
N.O. DOWNTOWN* FAIR      93  73  52 N6G16     29.90F HX 102
RESERVE*       FAIR      95  70  44 NE10      29.90F HX 101
SLIDELL        SUNNY     94  77  57 N7        29.89F HX 108
BATON ROUGE    SUNNY     94  67  41 NE12G20   29.92F HX  97
BOOTHVILLE     SUNNY     88  77  69 VRB6      29.89F HX 100
BELLE CHASSE   MOSUNNY   92  75  57 NE6       29.89F HX 103
BOGALUSA*        N/A     94  71  48 N12       29.93F HX 100
GALLIANO*      NOT AVBL
NEW ROADS*     FAIR     N/A N/A N/A N10       29.94S
GONZALES*      FAIR      93  70  46 NE8       29.90F HX  99
HAMMOND*       MOSUNNY   97  66  36 N9        29.92F HX 100
HOUMA*         MOSUNNY   93  73  52 N12       29.90F HX 102
PORT FOURCHON* PTCLDY    91  75  59 CALM      29.90F HX 102

$$

LAZ041-044-053-054-312200-
SOUTHWEST LOUISIANA

CITY           SKY/WX    TMP DP  RH WIND       PRES   REMARKS
LAKE CHARLES   MOSUNNY   95  65  37 N12       29.94S HX  97
LAFAYETTE      SUNNY     93  69  45 N14G21    29.93F HX  98
PATTERSON      MOSUNNY   91  73  55 N10       29.92F HX 100
SALT POINT       N/A     93  72  50 MISG      29.90F HX 101
NEW IBERIA     SUNNY     93  70  46 NE14      29.93F HX  99
CHENAULT AIRPK NOT AVBL

$$

LAZ027-028-312200-
CENTRAL LOUISIANA

CITY           SKY/WX    TMP DP  RH WIND       PRES   REMARKS
FORT POLK      SUNNY     92  64  39 NE10      29.96F
ALEXANDRIA INT SUNNY     94  63  35 N12       29.95F HX  95
ALEXANDRIA     NOT AVBL

$$

LAZ001-002-312200-
NORTHWEST LOUISIANA

CITY           SKY/WX    TMP DP  RH WIND       PRES   REMARKS
SHREVEPORT     MOSUNNY   95  58  28 NE10      30.02F
BARKSDALE AFB  SUNNY     94  59  31 NE14      30.02F
DTN SHREVEPORT SUNNY     92  58  31 E10       30.02F

$$

LAZ014-016-312200-
NORTHEAST LOUISIANA

CITY           SKY/WX    TMP DP  RH WIND       PRES   REMARKS
MONROE         SUNNY     93  63  36 NE16G22   30.01F
TALLULAH       SUNNY     94  60  32 NE10      29.98F

$$



USA.gov is the U.S. government's official web portal to all federal, state and local government web resources and services.